Location: Newark
(45.2500°N, 7.5833°E)
Time: 19:36:13
(UTC+00:00)

Vanguard 3 - Pass Details

Date: 29 January 2020
Orbit: 508 x 3263 km, 33.3° (Epoch: 25 February)

Event Time Altitude Azimuth Distance (km) Brightness Sun altitude
Rises 17:28:21 0° 252° (WSW) 6,893 14.2 -10.2°
Reaches altitude 10° 17:32:50 10° 249° (WSW) 6,047 13.1 -10.9°
Maximum altitude 17:51:51 56° 178° (S) 3,539 10.4 -14.2°
Enters shadow 18:06:28 14° 108° (ESE) 4,907 10.6 -16.7°
Drops below altitude 10° 18:07:40 10° 106° (ESE) 5,133 - -16.9°
Sets 18:11:07 0° 103° (ESE) 5,837 - -17.5°
